Flag for Germany Weather past 2 weeks in Garbsen, Lower Saxony, Germany

Now
63 °F

Sprinkles. Broken clouds.


Feels Like: 63 °F
Forecast: 55 / 64 °F
Wind: 12 mph from West

Location: Hannover

Current Time: Aug 30, 2014 at 4:36:36 PM

Latest Report: Aug 30, 2014 at 4:20 PM


Visibility: 5 mi

Pressure: 29.98 "Hg

Humidity: 88%

Dew point: 59 °F

Location of GarbsenLocation

Historic Weather in Garbsen — Graph

°F

Garbsen temperature yesterday

Maximum temperature yesterday: 72 °F (at 3:50 PM)
Minimum temperature yesterday: 57 °F (at 11:50 PM)
Average temperature yesterday: 65 °F

Past Weeks' High & Low Weather Summary

 TemperatureHumidityPressure
High73 °F (Aug 28, 2:50 PM)100% (Aug 25, 12:20 AM)30.07 "Hg (Aug 25, 12:20 AM)
Low43 °F (Aug 25, 5:20 AM)43% (Aug 28, 12:50 PM)29.59 "Hg (Aug 18, 5:20 AM)
Average58 °F78%29.90 "Hg
* Reported Aug 15 4:20 PM — Aug 30 3:20 PM, Garbsen, Weather by CustomWeather, © 2014

Note: Actual official high and low records may vary slightly from our data, if they occured in-between our weather recording intervals... More about our weather records

Advertising

Garbsen weather history for previous 24 hours

 ConditionsComfort  
Time TempWeatherWind HumidityBarometerVisibility
3:20 PM
Aug 30
63 °FSprinkles. Broken clouds.12 mph83%29.98 "Hg6 mi
2:50 PM64 °FLight rain. Partly sunny.13 mph78%29.98 "Hg5 mi
2:20 PM66 °FPartly sunny.12 mph68%29.98 "HgN/A
1:50 PM66 °FPartly sunny.10 mph68%29.98 "HgN/A
1:20 PM66 °FPartly sunny.9 mph73%29.98 "HgN/A
12:50 PM66 °FPartly sunny.13 mph73%29.98 "HgN/A
12:20 PM64 °FPartly sunny.9 mph78%29.98 "HgN/A
11:50 AM64 °FPartly sunny.13 mph73%29.98 "HgN/A
11:20 AM63 °FPartly sunny.10 mph83%29.98 "HgN/A
10:50 AM61 °FLight rain. Partly sunny.12 mph83%29.98 "HgN/A
10:20 AM63 °FBroken clouds.10 mph77%29.98 "HgN/A
9:50 AM61 °FBroken clouds.12 mph83%29.98 "HgN/A
9:20 AM61 °FBroken clouds.10 mph83%29.98 "HgN/A
8:50 AM61 °FBroken clouds.9 mph83%29.98 "HgN/A
8:20 AM61 °FSunny.8 mph83%29.98 "Hg10 mi
7:50 AM59 °FSunny.6 mph82%29.98 "Hg10 mi
7:20 AM59 °FClear.7 mph82%29.98 "Hg10 mi
6:50 AM59 °FClear.9 mph82%29.98 "Hg10 mi
6:20 AM59 °FClear.8 mph82%29.98 "Hg10 mi
5:50 AM59 °FClear.9 mph82%29.98 "Hg10 mi
5:20 AM59 °FClear.7 mph82%29.98 "Hg10 mi
4:50 AM59 °FClear.7 mph82%29.98 "Hg10 mi
4:20 AM57 °FClear.5 mph88%29.98 "Hg10 mi
3:50 AM59 °FClear.5 mph82%29.98 "Hg10 mi
3:20 AM59 °FPassing clouds.5 mph88%29.98 "HgN/A
2:50 AM59 °FClear.5 mph88%29.98 "Hg10 mi
2:20 AM59 °FClear.6 mph88%29.98 "Hg10 mi
1:50 AM59 °FClear.6 mph88%29.98 "Hg10 mi
1:20 AM59 °FClear.5 mph88%30.01 "Hg10 mi
12:50 AM57 °FClear.3 mph94%30.01 "Hg10 mi
12:20 AM57 °FClear.3 mph94%30.01 "Hg10 mi
11:50 PM
Aug 29
57 °FClear.5 mph94%29.98 "Hg10 mi
11:20 PM59 °FClear.3 mph88%29.98 "Hg10 mi
9:20 PM63 °FClear.7 mph83%29.98 "Hg10 mi
8:50 PM63 °FPassing clouds.5 mph83%29.95 "HgN/A
8:20 PM64 °FPassing clouds.5 mph78%29.95 "HgN/A
7:50 PM64 °FPartly sunny.6 mph78%29.95 "HgN/A
7:20 PM66 °FPartly sunny.6 mph73%29.95 "HgN/A
6:50 PM68 °FScattered clouds.7 mph56%29.95 "HgN/A
6:20 PM70 °FPassing clouds.9 mph57%29.95 "HgN/A
5:50 PM70 °FPassing clouds.13 mph53%29.95 "HgN/A
5:20 PM72 °FPassing clouds.10 mph50%29.95 "HgN/A
4:50 PM72 °FPassing clouds.10 mph50%29.95 "HgN/A
4:20 PM72 °FPassing clouds.13 mph50%29.95 "HgN/A
Weather by CustomWeather, © 2014

See weather overviewHow to use our weather pages